Location: Gull Harbor
(47.1000°N, 122.9000°W)
Time: 23:52:16
(UTC-07:00)

ISS - Visible Passes

Search period start: 18 October 2019 00:00
Search period end: 28 October 2019 00:00
Orbit: 411 x 421 km, 51.6° (Epoch: 19 October)

Date Brightness Start Highest point End Pass type
(mag) Time Alt. Az. Time Alt. Az. Time Alt. Az.
24 Oct -2.0 07:06:43 10° SSW 07:09:45 33° SE 07:12:49 10° ENE visible
25 Oct -1.3 06:18:42 10° S 06:21:19 21° SE 06:23:56 10° E visible
26 Oct -0.9 05:31:31 11° SSE 05:32:54 13° SE 05:34:38 10° ESE visible
26 Oct -3.5 07:05:47 10° SW 07:09:09 73° SSE 07:12:31 10° ENE visible
27 Oct -2.9 06:18:26 19° SW 06:20:34 47° SSE 06:23:50 10° ENE visible
